Location: Round Knob
(37.2473°N, 88.7376°W)
Time: 13:33:49
(UTC+00:00)

SAR-Lupe-4 - Pass Details

Date: 29 October 2020
Orbit: 481 x 484 km, 98.2° (Epoch: 25 November)

Event Time Altitude Azimuth Distance (km) Brightness Sun altitude
Rises 23:23:55 0° 20° (NNE) 2,548 6.9 -5.5°
Reaches altitude 10° 23:26:04 10° 28° (NNE) 1,664 5.9 -5.9°
Maximum altitude 23:29:27 41° 100° (E) 714 4.0 -6.5°
Drops below altitude 10° 23:32:49 10° 171° (S) 1,652 6.3 -7.2°
Sets 23:34:57 0° 179° (S) 2,527 7.3 -7.6°
